Eastsound, WA

12:59 PM PST on January 21, 2018 (GMT -0800)
Orcas Island

Weather History for KORS - October, 2013

Change the Weather History Date:

Tuesday, October 1, 2013

  Actual Average (KFHR) Record (KFHR)
Temperature  
Mean Temperature 50 °F -  
Max Temperature 55 °F 60 °F 73 °F (2003)
Min Temperature 46 °F 44 °F 36 °F (1999)
Degree Days  
Heating Degree Days 14    
Moisture  
Dew Point 47 °F    
Average Humidity 87    
Maximum Humidity 100    
Minimum Humidity 63    
Precipitation  
Precipitation 0.00 in - - ()
Sea Level Pressure  
Sea Level Pressure 29.96 in    
Wind  
Wind Speed 7 mph (South)    
Max Wind Speed 14 mph    
Max Gust Speed 20 mph    
Visibility 9 miles    
Events Rain    
Averages and records for this station are not official NWS values.
T = Trace of Precipitation, MM = Missing Value Source: NWS Daily Summary

Daily Weather History Graph

Daily Weather History Graph

Search for Another Location

Airport or City:

Trip Planner

Search our weather history database for the weather conditions in past years. The results will help you decide how hot, cold, wet, or windy it might be!

Date:

Astronomy

Oct. 01, 2013 Rise Set
Actual Time 7:11 AM PDT 6:49 PM PDT
Civil Twilight 6:40 AM PDT 7:21 PM PDT
Nautical Twilight 6:03 AM PDT 7:57 PM PDT
Astronomical Twilight 5:26 AM PDT 8:34 PM PDT
Moon 3:37 AM PDT (10/1) 5:07 PM PDT (10/1)
Length of Visible Light 12h 40m
Length of Day
11h 38m
Waning Crescent, 11% of the Moon is Illuminated
Oct 1
Waning Crescent
Oct 4
New
Oct 11
First Quarter
Oct 18
Full
Oct 26
Last Quarter

Hourly Weather History & Observations

Time (PDT) Temp. Windchill Dew Point Humidity Pressure Visibility Wind Dir Wind Speed Gust Speed Precip Events Conditions
12:15 AM 46.4 °F - 42.8 °F 87% 29.86 in 10.0 mi North - - N/A   Scattered Clouds
12:35 AM 48.2 °F - 44.6 °F 87% 29.87 in 10.0 mi South 5.8 mph - N/A   Mostly Cloudy
12:55 AM 48.2 °F - 44.6 °F 87% 29.87 in 10.0 mi SSW 6.9 mph - N/A   Scattered Clouds
1:15 AM 48.2 °F - 46.4 °F 93% 29.87 in 10.0 mi South 9.2 mph - N/A   Scattered Clouds
1:35 AM 48.2 °F - 46.4 °F 93% 29.87 in 10.0 mi SSW 8.1 mph - N/A   Partly Cloudy
1:55 AM 50.0 °F - 46.4 °F 87% 29.88 in 10.0 mi SSW 12.7 mph - N/A   Partly Cloudy
2:15 AM 50.0 °F - 46.4 °F 87% 29.88 in 10.0 mi South 9.2 mph - N/A   Scattered Clouds
2:35 AM 48.2 °F - 46.4 °F 93% 29.88 in 7.0 mi SSW 6.9 mph - N/A Rain Light Rain
2:55 AM 48.2 °F - 46.4 °F 93% 29.88 in 10.0 mi South 4.6 mph - N/A   Mostly Cloudy
3:15 AM 48.2 °F - 46.4 °F 93% 29.88 in 10.0 mi SSW 6.9 mph - N/A   Mostly Cloudy
3:35 AM 48.2 °F - 46.4 °F 93% 29.88 in 10.0 mi South 5.8 mph - N/A   Partly Cloudy
3:55 AM 48.2 °F - 46.4 °F 93% 29.88 in 9.0 mi Calm Calm - N/A Rain Light Rain
4:15 AM 48.2 °F - 46.4 °F 93% 29.88 in 5.0 mi SSW 5.8 mph - N/A Rain Light Rain
4:35 AM 48.2 °F - 46.4 °F 93% 29.88 in 4.0 mi SSW 4.6 mph - N/A Rain Light Rain
4:55 AM 48.2 °F - 46.4 °F 93% 29.88 in 9.0 mi South 3.5 mph - N/A   Mostly Cloudy
5:15 AM 46.4 °F 43.5 °F 46.4 °F 100% 29.88 in 10.0 mi South 5.8 mph - N/A   Clear
5:35 AM 48.2 °F - 46.4 °F 93% 29.88 in 10.0 mi South 6.9 mph - N/A   Clear
5:55 AM 48.2 °F - 46.4 °F 93% 29.88 in 10.0 mi South 4.6 mph - N/A   Clear
6:15 AM 48.2 °F - 46.4 °F 93% 29.88 in 10.0 mi South 10.4 mph - N/A   Clear
6:35 AM 48.2 °F - 46.4 °F 93% 29.88 in 10.0 mi South 12.7 mph - N/A   Clear
6:55 AM 48.2 °F - 46.4 °F 93% 29.88 in 10.0 mi South 9.2 mph - N/A   Clear
7:15 AM 48.2 °F - 44.6 °F 87% 29.89 in 10.0 mi South 8.1 mph - N/A   Clear
7:35 AM 48.2 °F - 44.6 °F 87% 29.90 in 10.0 mi South 9.2 mph - N/A   Scattered Clouds
9:55 AM 50.0 °F - 46.4 °F 87% 29.93 in 10.0 mi South 9.2 mph - N/A   Mostly Cloudy
10:15 AM 50.0 °F - 46.4 °F 87% 29.93 in 10.0 mi South 6.9 mph - N/A   Partly Cloudy
10:35 AM 50.0 °F - 46.4 °F 87% 29.94 in 10.0 mi South 6.9 mph - N/A   Scattered Clouds
10:55 AM 51.8 °F - 46.4 °F 82% 29.95 in 10.0 mi South 4.6 mph - N/A   Scattered Clouds
11:15 AM 53.6 °F - 46.4 °F 77% 29.95 in 10.0 mi South 5.8 mph - N/A   Partly Cloudy
11:35 AM 53.6 °F - 46.4 °F 77% 29.95 in 10.0 mi South 4.6 mph - N/A   Partly Cloudy
11:55 AM 53.6 °F - 46.4 °F 77% 29.95 in 10.0 mi South 13.8 mph - N/A   Scattered Clouds
12:15 PM 53.6 °F - 46.4 °F 77% 29.97 in 10.0 mi South 9.2 mph - N/A   Scattered Clouds
12:35 PM 53.6 °F - 46.4 °F 77% 29.97 in 10.0 mi South 10.4 mph - N/A   Partly Cloudy
12:55 PM 55.4 °F - 42.8 °F 63% 29.97 in 10.0 mi South 4.6 mph - N/A   Clear
1:15 PM 55.4 °F - 44.6 °F 67% 29.97 in 10.0 mi South 10.4 mph - N/A   Partly Cloudy
1:35 PM 55.4 °F - 44.6 °F 67% 29.98 in 10.0 mi South 11.5 mph - N/A   Partly Cloudy
1:55 PM 55.4 °F - 44.6 °F 67% 29.98 in 10.0 mi South 4.6 mph - N/A   Clear
2:15 PM 55.4 °F - 44.6 °F 67% 29.98 in 10.0 mi South 6.9 mph - N/A   Clear
2:35 PM 55.4 °F - 44.6 °F 67% 29.98 in 10.0 mi South 9.2 mph - N/A   Clear
2:55 PM 53.6 °F - 44.6 °F 72% 29.99 in 10.0 mi South 8.1 mph - N/A   Clear
3:15 PM 53.6 °F - 46.4 °F 77% 29.99 in 10.0 mi South 5.8 mph - N/A   Clear
3:35 PM 53.6 °F - 46.4 °F 77% 29.99 in 10.0 mi South 5.8 mph - N/A   Clear
3:55 PM 53.6 °F - 46.4 °F 77% 30.00 in 10.0 mi South 6.9 mph - N/A   Clear
4:15 PM 53.6 °F - 46.4 °F 77% 30.00 in 10.0 mi South 3.5 mph - N/A Rain Light Rain
4:35 PM 53.6 °F - 46.4 °F 77% 30.00 in 10.0 mi South 4.6 mph - N/A Rain Light Rain
4:55 PM 53.6 °F - 48.2 °F 82% 30.01 in 5.0 mi North - - N/A Rain Light Rain
5:15 PM 51.8 °F - 48.2 °F 88% 30.01 in 5.0 mi Calm Calm - N/A Rain Light Rain
5:35 PM 50.0 °F - 48.2 °F 94% 30.01 in 6.0 mi North - - N/A Rain Light Rain
5:55 PM 50.0 °F - 48.2 °F 94% 30.01 in 7.0 mi Calm Calm - N/A Rain Light Rain
6:15 PM 50.0 °F - 46.4 °F 87% 30.01 in 10.0 mi Calm Calm - N/A Rain Light Rain
6:35 PM 50.0 °F - 48.2 °F 94% 30.02 in 7.0 mi Calm Calm - N/A Rain Light Rain
6:55 PM 48.2 °F - 48.2 °F 100% 30.02 in 5.0 mi Calm Calm - N/A Rain Rain
7:15 PM 48.2 °F - 48.2 °F 100% 30.02 in 9.0 mi Calm Calm - N/A Rain Light Rain
7:35 PM 48.2 °F - 48.2 °F 100% 30.03 in 10.0 mi Calm Calm - N/A   Mostly Cloudy
7:55 PM 48.2 °F - 48.2 °F 100% 30.03 in 10.0 mi Calm Calm - N/A   Scattered Clouds
8:15 PM 48.2 °F - 48.2 °F 100% 30.04 in 10.0 mi Calm Calm - N/A   Scattered Clouds
8:35 PM 48.2 °F - 48.2 °F 100% 30.03 in 10.0 mi Calm Calm - N/A   Mostly Cloudy
8:55 PM 48.2 °F - 48.2 °F 100% 30.03 in 10.0 mi Calm Calm - N/A   Scattered Clouds
9:15 PM 50.0 °F - 48.2 °F 94% 30.04 in 10.0 mi South 8.1 mph - N/A   Mostly Cloudy
9:35 PM 51.8 °F - 48.2 °F 88% 30.04 in 10.0 mi South 6.9 mph 19.6 mph N/A   Mostly Cloudy
9:55 PM 51.8 °F - 48.2 °F 88% 30.04 in 10.0 mi South 10.4 mph 16.1 mph N/A   Mostly Cloudy
10:15 PM 51.8 °F - 48.2 °F 88% 30.05 in 10.0 mi South 10.4 mph 17.3 mph N/A   Scattered Clouds
10:35 PM 51.8 °F - 48.2 °F 88% 30.05 in 10.0 mi South 9.2 mph - N/A   Mostly Cloudy
10:55 PM 50.0 °F - 48.2 °F 94% 30.06 in 10.0 mi South 10.4 mph 16.1 mph N/A   Mostly Cloudy
11:15 PM 50.0 °F - 48.2 °F 94% 30.06 in 10.0 mi South 8.1 mph - N/A   Overcast
11:35 PM 50.0 °F - 48.2 °F 94% 30.07 in 8.0 mi South 8.1 mph - N/A Rain Light Rain
11:55 PM 50.0 °F - 48.2 °F 94% 30.07 in 4.0 mi SSW 10.4 mph - N/A Rain Light Rain